Tracking 20083 objects as of 8-Dec-2019
HD Live streaming from Space Station
objects crossing your sky now

LEMUR 1

Track LEMUR 1 now!
10-day predictions
LEMUR 1 is classified as:


NORAD ID: 40044
Int'l Code: 2014-033AL
Perigee: 614.5 km
Apogee: 695.5 km
Inclination: 97.7 °
Period: 97.7 minutes
Semi major axis: 7025 km
RCS: Unknown
Launch date: June 19, 2014
Source: United States (US)
Launch site: Orenburg, Russia (OREN)
aabbcc
Your satellite tracking list
Your tracking list is empty




NASA's NSSDC Master Catalog

Two Line Element Set (TLE):
1 40044U 14033AL  19341.69435553  .00000103  00000-0  22737-4 0  9990
2 40044  97.7310 201.4265 0057680 263.3513  96.1129 14.74151603293914
Source of the keplerian elements: AFSPC